Voltar ao catálogo

CZ-6A DEB

AtivoPO
NORAD 61083·DEBRIS·🇨🇳 China

Lançado Aug 6, 2024 de Taiyuan Satellite Launch Center

Loading…

Próximas Passagens (próximas 24 horas)

TLE

AtualizadoSource: Space-Track

Época: Sep 14, 2026, 23:07 UTC

1 61083U 24140MZ  26257.96377514  .00000344  00000-0  90492-4 0  9992
2 61083  88.8903 251.0277 0098267  23.6119 336.9548 14.43833594108162

Acompanhe CZ-6A DEB em tempo real com AllMySat

Download on the App Store